Location: Columbia, SC
(34.0000°N, 81.0300°W)
Time: 23:55:41
(UTC-04:00)

Tiangong 1 - Visible Passes

Search period start: 19 September 2017 00:00
Search period end: 29 September 2017 00:00
Orbit: 304 x 329 km, 42.8° (Epoch: 19 September)

Date Brightness Start Highest point End Pass type
(mag) Time Alt. Az. Time Alt. Az. Time Alt. Az.
19 Sep 3.4 06:35:55 10° NNW 06:37:20 13° N 06:38:45 10° NE visible
20 Sep 4.0 05:16:48 11° NNE 05:16:48 11° NNE 05:16:59 10° NNE visible
21 Sep 3.6 05:30:00 12° NNE 05:30:00 12° NNE 05:30:56 10° NNE visible
22 Sep 3.2 05:43:07 15° N 05:43:33 15° N 05:45:13 10° NE visible
23 Sep 2.8 05:56:13 17° NNW 05:57:18 22° NNE 05:59:29 10° ENE visible
24 Sep 1.7 06:09:19 20° NW 06:10:51 41° NNE 06:13:24 10° E visible
25 Sep 0.5 06:22:27 19° WNW 06:24:09 71° SSW 06:26:48 10° SE visible
26 Sep 2.0 06:35:36 14° W 06:37:13 23° SW 06:39:26 10° SSE visible
